| time (UTC) | temp F | wind direction | speed MPH | gust MPH | rain 1hr in | rain 24hr in | rain mn in | humidity % | barometer mb |
| 20260831053017 | 71 | 212 | 0.0 | 2.0 | 0.01 | 0.15 | 0.01 | 94 | 1017.6 |
| 20260831051513 | 71 | 212 | 0.0 | 0.0 | 0.00 | 0.14 | 0.00 | 94 | 1017.6 |
| 20260831050024 | 71 | 212 | 0.0 | 1.0 | 0.00 | 0.14 | 0.00 | 94 | 1017.5 |
| 20260831044505 | 71 | 212 | 0.0 | 0.0 | 0.00 | 0.14 | 0.00 | 94 | 1017.5 |
| 20260831043002 | 71 | 212 | 0.0 | 0.0 | 0.01 | 0.14 | 0.00 | 94 | 1017.2 |
| 20260831041503 | 72 | 212 | 0.0 | 0.0 | 0.01 | 0.14 | 0.00 | 94 | 1017.3 |
| 20260831040059 | 72 | 212 | 0.0 | 1.0 | 0.01 | 0.14 | 0.00 | 94 | 1017.2 |
| 20260831034557 | 72 | 211 | 0.0 | 4.0 | 0.01 | 0.14 | 0.14 | 93 | 1017.4 |
| 20260831033057 | 72 | 211 | 0.0 | 2.0 | 0.00 | 0.13 | 0.13 | 94 | 1017.6 |
| 20260831031557 | 72 | 213 | 0.0 | 3.0 | 0.00 | 0.13 | 0.13 | 94 | 1017.8 |
| 20260831030059 | 73 | 213 | 0.0 | 1.0 | 0.00 | 0.13 | 0.13 | 94 | 1017.9 |
| 20260831024557 | 73 | 213 | 0.0 | 2.0 | 0.00 | 0.13 | 0.13 | 93 | 1018.0 |
| 20260831023055 | 73 | 222 | 0.0 | 4.0 | 0.01 | 0.13 | 0.13 | 93 | 1018.0 |
| 20260831021558 | 73 | 260 | 1.0 | 9.0 | 0.01 | 0.13 | 0.13 | 93 | 1017.9 |
| 20260831020054 | 73 | 224 | 0.0 | 7.0 | 0.01 | 0.13 | 0.13 | 92 | 1017.9 |
| 20260831014555 | 73 | 278 | 1.0 | 8.0 | 0.00 | 0.12 | 0.12 | 92 | 1017.9 |
| 20260831013055 | 73 | 235 | 0.0 | 10.0 | 0.00 | 0.12 | 0.12 | 91 | 1017.9 |
| 20260831011553 | 73 | 189 | 2.0 | 5.0 | 0.00 | 0.12 | 0.12 | 91 | 1017.9 |
| 20260831010057 | 73 | 268 | 1.0 | 7.0 | 0.00 | 0.12 | 0.12 | 90 | 1017.7 |
| 20260831004553 | 73 | 175 | 0.0 | 5.0 | 0.01 | 0.12 | 0.12 | 90 | 1017.7 |
| 20260831003052 | 73 | 172 | 2.0 | 8.0 | 0.01 | 0.12 | 0.12 | 89 | 1017.6 |
| 20260831001551 | 73 | 175 | 0.0 | 9.0 | 0.01 | 0.12 | 0.12 | 89 | 1017.6 |
| 20260831000059 | 73 | 161 | 1.0 | 6.0 | 0.01 | 0.12 | 0.12 | 89 | 1017.4 |
| 20260830234557 | 73 | 166 | 2.0 | 10.0 | 0.00 | 0.11 | 0.11 | 88 | 1017.3 |
| 20260830233100 | 73 | 171 | 0.0 | 5.0 | 0.00 | 0.11 | 0.11 | 88 | 1017.3 |
| 20260830231550 | 73 | 186 | 0.0 | 7.0 | 0.01 | 0.11 | 0.11 | 87 | 1017.4 |
| 20260830230050 | 73 | 162 | 2.0 | 6.0 | 0.01 | 0.11 | 0.11 | 86 | 1017.2 |
| 20260830224548 | 74 | 211 | 1.0 | 7.0 | 0.01 | 0.11 | 0.11 | 86 | 1017.6 |
| 20260830223049 | 74 | 191 | 1.0 | 12.0 | 0.00 | 0.10 | 0.10 | 85 | 1017.6 |
| 20260830221550 | 74 | 252 | 1.0 | 7.0 | 0.00 | 0.10 | 0.10 | 84 | 1017.7 |
| 20260830220059 | 74 | 188 | 0.0 | 7.0 | 0.01 | 0.10 | 0.10 | 84 | 1017.7 |
| 20260830214546 | 75 | 250 | 1.0 | 9.0 | 0.01 | 0.10 | 0.10 | 84 | 1017.6 |
| 20260830213045 | 75 | 255 | 1.0 | 6.0 | 0.01 | 0.10 | 0.10 | 85 | 1017.7 |
| 20260830211548 | 75 | 227 | 2.0 | 7.0 | 0.01 | 0.10 | 0.10 | 84 | 1017.9 |
| 20260830210043 | 75 | 244 | 1.0 | 7.0 | 0.00 | 0.09 | 0.09 | 83 | 1017.8 |
| 20260830204554 | 75 | 214 | 1.0 | 8.0 | 0.01 | 0.09 | 0.09 | 82 | 1018.0 |
| 20260830203040 | 76 | 173 | 1.0 | 8.0 | 0.01 | 0.09 | 0.09 | 81 | 1018.0 |
| 20260830201552 | 77 | 182 | 2.0 | 10.0 | 0.01 | 0.09 | 0.09 | 80 | 1018.1 |
| 20260830200044 | 77 | 249 | 2.0 | 16.0 | 0.01 | 0.09 | 0.09 | 79 | 1018.1 |
| 20260830194540 | 78 | 172 | 1.0 | 9.0 | 0.01 | 0.08 | 0.08 | 80 | 1018.4 |
| 20260830193035 | 78 | 176 | 1.0 | 12.0 | 0.01 | 0.08 | 0.08 | 78 | 1018.4 |
| 20260830191612 | 78 | 169 | 0.0 | 8.0 | 0.01 | 0.08 | 0.08 | 79 | 1018.7 |
| 20260830190041 | 78 | 276 | 1.0 | 9.0 | 0.01 | 0.08 | 0.08 | 80 | 1018.8 |
| 20260830184533 | 77 | 186 | 2.0 | 11.0 | 0.00 | 0.07 | 0.07 | 79 | 1018.9 |
| 20260830183028 | 77 | 180 | 0.0 | 12.0 | 0.01 | 0.07 | 0.07 | 79 | 1019.1 |
| 20260830181525 | 77 | 300 | 2.0 | 9.0 | 0.01 | 0.07 | 0.07 | 78 | 1019.3 |
| 20260830180033 | 77 | 160 | 2.0 | 10.0 | 0.01 | 0.07 | 0.07 | 78 | 1019.6 |
| 20260830174530 | 77 | 171 | 1.0 | 9.0 | 0.01 | 0.07 | 0.07 | 77 | 1019.7 |
| 20260830173023 | 77 | 246 | 1.0 | 5.0 | 0.00 | 0.06 | 0.06 | 73 | 1019.5 |
| 20260830171521 | 77 | 222 | 1.0 | 6.0 | 0.00 | 0.06 | 0.06 | 70 | 1019.9 |
| 20260830170020 | 78 | 222 | 1.0 | 6.0 | 0.01 | 0.06 | 0.06 | 71 | 1020.1 |
| 20260830164518 | 79 | 165 | 2.0 | 10.0 | 0.01 | 0.06 | 0.06 | 73 | 1020.0 |
| 20260830163033 | 78 | 271 | 2.0 | 8.0 | 0.01 | 0.06 | 0.06 | 68 | 1020.0 |
| 20260830161514 | 77 | 280 | 3.0 | 11.0 | 0.01 | 0.06 | 0.06 | 67 | 1020.3 |
| 20260830160011 | 77 | 182 | 1.0 | 9.0 | 0.01 | 0.05 | 0.05 | 69 | 1020.3 |
| 20260830154509 | 76 | 274 | 0.0 | 6.0 | 0.01 | 0.05 | 0.05 | 71 | 1020.4 |
| 20260830153004 | 76 | 209 | 0.0 | 7.0 | 0.01 | 0.05 | 0.05 | 74 | 1020.6 |
| 20260830151559 | 76 | 193 | 1.0 | 4.0 | 0.01 | 0.05 | 0.05 | 76 | 1020.7 |
| 20260830150055 | 75 | 166 | 1.0 | 6.0 | 0.00 | 0.04 | 0.04 | 80 | 1020.9 |
| 20260830144604 | 75 | 174 | 1.0 | 7.0 | 0.00 | 0.04 | 0.04 | 82 | 1021.0 |
| 20260830143047 | 75 | 186 | 1.0 | 9.0 | 0.01 | 0.04 | 0.04 | 82 | 1021.3 |
| 20260830141543 | 74 | 218 | 1.0 | 7.0 | 0.01 | 0.04 | 0.04 | 81 | 1021.4 |
| 20260830140040 | 73 | 185 | 1.0 | 6.0 | 0.01 | 0.04 | 0.04 | 81 | 1021.4 |
| 20260830134539 | 72 | 172 | 0.0 | 6.0 | 0.01 | 0.04 | 0.04 | 86 | 1021.5 |
| 20260830133032 | 70 | 238 | 0.0 | 4.0 | 0.00 | 0.03 | 0.03 | 90 | 1021.6 |
| 20260830131547 | 69 | 248 | 0.0 | 3.0 | 0.00 | 0.03 | 0.03 | 92 | 1021.8 |
| 20260830130028 | 69 | 260 | 0.0 | 6.0 | 0.00 | 0.03 | 0.03 | 93 | 1021.8 |
| 20260830124524 | 68 | 241 | 0.0 | 2.0 | 0.00 | 0.03 | 0.03 | 94 | 1021.9 |
| 20260830123026 | 67 | 242 | 0.0 | 4.0 | 0.01 | 0.03 | 0.03 | 95 | 1021.9 |
| 20260830121520 | 66 | 107 | 0.0 | 2.0 | 0.01 | 0.03 | 0.03 | 95 | 1021.9 |
| 20260830120016 | 65 | 103 | 0.0 | 3.0 | 0.01 | 0.03 | 0.03 | 95 | 1021.9 |
| 20260830114517 | 65 | 263 | 0.0 | 1.0 | 0.01 | 0.03 | 0.03 | 95 | 1022.0 |
| 20260830113017 | 64 | 214 | 0.0 | 3.0 | 0.00 | 0.02 | 0.02 | 95 | 1021.9 |
| 20260830111512 | 64 | 208 | 0.0 | 1.0 | 0.00 | 0.02 | 0.02 | 95 | 1021.8 |
| 20260830110012 | 63 | 209 | 0.0 | 0.0 | 0.00 | 0.02 | 0.02 | 94 | 1021.7 |
| 20260830104508 | 63 | 209 | 0.0 | 0.0 | 0.00 | 0.02 | 0.02 | 94 | 1021.6 |
| 20260830103007 | 63 | 209 | 0.0 | 0.0 | 0.00 | 0.02 | 0.02 | 94 | 1021.6 |
| 20260830101505 | 63 | 209 | 0.0 | 0.0 | 0.00 | 0.02 | 0.02 | 94 | 1021.5 |
| 20260830100005 | 63 | 209 | 0.0 | 0.0 | 0.00 | 0.02 | 0.02 | 94 | 1021.6 |
| 20260830094504 | 62 | 209 | 0.0 | 0.0 | 0.01 | 0.02 | 0.02 | 94 | 1021.9 |
| 20260830093003 | 63 | 209 | 0.0 | 0.0 | 0.01 | 0.02 | 0.02 | 93 | 1021.7 |
| 20260830091505 | 62 | 209 | 0.0 | 0.0 | 0.01 | 0.02 | 0.02 | 93 | 1021.6 |
| 20260830090001 | 62 | 209 | 0.0 | 0.0 | 0.01 | 0.02 | 0.02 | 93 | 1021.9 |
| 20260830084501 | 62 | 209 | 0.0 | 0.0 | 0.00 | 0.01 | 0.01 | 93 | 1021.7 |
| 20260830081601 | 62 | 209 | 0.0 | 0.0 | 0.00 | 0.01 | 0.01 | 93 | 1021.9 |
| 20260830080059 | 62 | 209 | 0.0 | 0.0 | 0.00 | 0.01 | 0.01 | 93 | 1021.8 |
| 20260830074559 | 62 | 209 | 0.0 | 0.0 | 0.00 | 0.01 | 0.01 | 92 | 1021.9 |
| 20260830073057 | 62 | 209 | 0.0 | 0.0 | 0.00 | 0.01 | 0.01 | 92 | 1022.0 |
| 20260830071608 | 62 | 209 | 0.0 | 0.0 | 0.00 | 0.01 | 0.01 | 92 | 1022.1 |
| 20260830070110 | 62 | 209 | 0.0 | 0.0 | 0.00 | 0.01 | 0.01 | 92 | 1022.0 |
| 20260830064555 | 62 | 209 | 0.0 | 0.0 | 0.00 | 0.01 | 0.01 | 92 | 1021.9 |
| 20260830063057 | 62 | 209 | 0.0 | 0.0 | 0.00 | 0.01 | 0.01 | 91 | 1021.9 |
| 20260830061553 | 62 | 209 | 0.0 | 0.0 | 0.00 | 0.01 | 0.01 | 91 | 1021.8 |
| 20260830060055 | 62 | 209 | 0.0 | 0.0 | 0.01 | 0.01 | 0.01 | 91 | 1021.9 |
| 20260830054552 | 62 | 209 | 0.0 | 0.0 | 0.01 | 0.01 | 0.01 | 92 | 1022.0 |